sat.trackr.live / text

‹ back to catalog

STARLINK-31260

NORAD 58881 · 2024-020F

PAYLOAD ACTIVE UNKNOWN

§ Identity

Operator
Country
US
Launch date
2024-01-29
Launch site
AFWTR
Launch vehicle
Mass (kg)
RCS (m²)

Purposes: comms

External: N2YO · Heavens-Above · Gunter

§ Orbital elements

Epoch: 2026-05-24T09:27:02.681856Z

Period
94.03 min
Inclination
53.1595°
Eccentricity
0.0002796
Mean motion
15.31446657 rev/d
Perigee alt
469.6 km
Apogee alt
473.4 km
Semi-major
6,849.6 km
B*
1.0685e-2
RAAN
330.6491°
Arg perigee
125.3048°
Mean anomaly
234.8215°
Rev number
12,966

§ Raw data

STARLINK-312601 58881U 24020F   26144.39378104  .00344192  00000+0  10685-1 0  99932 58881  53.1595 330.6491 0002796 125.3048 234.8215 15.31446657129664

JSON: /api/v1/satellites/58881 · /tle

For live sub-satellite position, see the globe view (requires WebGL).

§ Visibility from observer

Set your observer location to see the next 7 days of passes ≥ 10°. The values pass through the URL so the page stays shareable.

No JS? Fill the form by hand. The geolocation button needs JavaScript.